sat.trackr.live / text

‹ back to catalog

STARLINK-35522

NORAD 66341 · 2025-253Y

PAYLOAD ACTIVE UNKNOWN

§ Identity

Operator
Country
US
Launch date
2025-11-06
Launch site
AFETR
Launch vehicle
Mass (kg)
RCS (m²)

Purposes: comms

External: N2YO · Heavens-Above · Gunter

§ Orbital elements

Epoch: 2026-09-20T05:17:41.075520Z

Period
94.26 min
Inclination
42.9995°
Eccentricity
0.0001642
Mean motion
15.27616076 rev/d
Perigee alt
481.8 km
Apogee alt
484.1 km
Semi-major
6,861.1 km
B*
6.2412e-4
RAAN
194.0556°
Arg perigee
266.3516°
Mean anomaly
93.7148°
Rev number
4,999

§ Raw data

STARLINK-355221 66341U 25253Y   26263.22061430  .00016971  00000+0  62412-3 0  99952 66341  42.9995 194.0556 0001642 266.3516  93.7148 15.27616076 49996

JSON: /api/v1/satellites/66341 · /tle

For live sub-satellite position, see the globe view (requires WebGL).

§ Visibility from observer

Set your observer location to see the next 7 days of passes ≥ 10°. The values pass through the URL so the page stays shareable.

No JS? Fill the form by hand. The geolocation button needs JavaScript.